Погода в Больших Абакасах

Россия / Чувашская Республика     55°23′02″N   47°02′20″E
темп.,
°C
ветер,
м/с
пор.,
м/с
влажн.,
%
обл.,
%
осадки,
мм/ч
давл.,
гПа
погр.,
м
16 апреля, пт
пт1600:00+11ссв477280 0.0 1019113
03:00+9св6119790 0.0 1020347
06:00+9всв71192100 0.0 1021434
09:00+10всв71084100 0.0 1022566
12:00+13всв6866100 0.0 1023758
15:00+15всв785770 0.0 10231083
18:00+13всв7116957 0.0 1023495
21:00+9всв6137611 0.0 1025369
17 апреля, сб
сб1700:00+7всв511806 0.0 1025286
03:00+5всв511775 0.0 1026240
06:00+4всв511745 0.0 1026288
09:00+9всв69585 0.0 1026565
12:00+12всв67474 0.0 1026987
15:00+13всв67370 0.0 10251188
18:00+11всв48455 0.0 1025248
21:00+7всв512590 0.0 1024260
18 апреля, вс
вс1800:00+4всв412720 0.0 1025236
03:00+3всв410780 0.0 1025193
06:00+3всв511765 0.0 1025279
09:00+9в68540 0.0 1025878
12:00+12всв68435 0.0 10241412
15:00+13всв784180 0.0 10241714
18:00+10всв51054100 0.0 1024404
21:00+6всв61273100 0.0 1026565
19 апреля, пн
пн1900:00+5всв51168100 0.0 1027562
03:00+3всв51158100 0.0 1028422
06:00+2всв6126541 0.0 1029563
09:00+5в8114924 0.0 10301024
12:00+7в9113837 0.0 10301467
15:00+8в810395 0.0 10291629
18:00+6в7114678 0.0 10301138
21:00+3в6144877 0.0 1030526
20 апреля, вт
вт2000:00+2в6145189 0.0 1031448
03:000в613595 0.0 1031351
06:00+1в614645 0.0 1031490
09:00+6вюв812455 0.0 1030953
12:00+9вюв9114114 0.0 10301345
15:00+10вюв8113992 0.0 10271386
18:00+8вюв81343100 0.0 1025917
21:00+6юв81544100 0.0 1026719